Location: Eboldshausen
(51.7766°N, 10.0050°E)
Time: 18:17:44
(UTC+00:00)

Cosmos 2227 Rocket - Pass Details

Date: 15 November 2025
Orbit: 839 x 842 km, 71.0° (Epoch: 10 December)

Event Time Altitude Azimuth Distance (km) Brightness Sun altitude
Rises 18:17:06 0° 317° (NW) 3,404 6.0 -25.7°
Reaches altitude 10° 18:21:53 10° 353° (N) 2,468 4.7 -26.5°
Maximum altitude 18:23:20 11° 8° (N) 2,403 4.5 -26.7°
Enters shadow 18:23:40 11° 11° (NNE) 2,406 4.5 -26.7°
